Location: ???? ???
(30.5005°N, 60.5936°E)
Time: 13:27:44
(UTC+00:00)

CZ-4B R/B - Pass Details

Date: 07 June 2020
Orbit: 392 x 463 km, 97.6° (Epoch: 06 July)

Event Time Altitude Azimuth Distance (km) Brightness Sun altitude
Rises 00:01:38 0° 160° (SSE) 2,277 4.8 -10.7°
Reaches altitude 10° 00:03:36 10° 157° (SSE) 1,429 3.8 -10.3°
Maximum altitude 00:06:35 58° 77° (ENE) 468 1.8 -9.8°
Drops below altitude 10° 00:09:39 10° 357° (N) 1,460 4.4 -9.2°
Sets 00:11:40 0° 353° (N) 2,333 5.4 -8.9°
